Flag for Switzerland Weather past 2 weeks in Delémont, Jura, Switzerland

Now
61 °F

Cool.


Feels Like: 61 °F
Forecast: 57 / 71 °F
Wind: 3 mph from South

Location: Grenchen

Current Time: Jul 26, 2014 at 1:37:27 AM

Latest Report: Jul 26, 2014 at 1:00 AM


Visibility: N/A

Pressure: 29.93 "Hg

Humidity: 82%

Dew point: 56 °F

Location of DelémontLocation

Historic Weather in Delémont — Graph

°F

Delémont temperature yesterday

Maximum temperature yesterday: 81 °F (at 4:00 PM)
Minimum temperature yesterday: 54 °F (at 6:00 AM)
Average temperature yesterday: 67 °F

Past Weeks' High & Low Weather Summary

 TemperatureHumidityPressure
High89 °F (Jul 18, 5:00 PM)100% (Jul 12, 8:00 AM)30.22 "Hg (Jul 12, 8:00 AM)
Low53 °F (Jul 12, 6:00 AM)18% (Jul 18, 5:00 PM)29.81 "Hg (Jul 19, 8:00 PM)
Average67 °F76%29.98 "Hg
* Reported Midnight between Jul 10 and Jul 11 — Midnight between Jul 25 and Jul 26, Delémont, Weather by CustomWeather, © 2014

Note: Actual official high and low records may vary slightly from our data, if they occured in-between our weather recording intervals... More about our weather records

Advertising

Delémont weather history for previous 24 hours

 ConditionsComfort  
Time TempWeatherWind HumidityBarometerVisibility
12:00 AM
Jul 26
63 °FMild.3 mph77%29.93 "HgN/A
11:00 PM
Jul 25
62 °FMild.1 mph80%29.92 "HgN/A
10:00 PM67 °FMild.2 mph64%29.90 "HgN/A
9:00 PM68 °FMild.1 mph62%29.88 "HgN/A
8:00 PM73 °FMild.5 mph41%29.86 "HgN/A
7:00 PM72 °FMild.6 mph50%29.84 "HgN/A
6:00 PM74 °FMild.3 mph50%29.83 "HgN/A
5:00 PM79 °FPleasantly warm.3 mph37%29.81 "HgN/A
4:00 PM81 °FPleasantly warm.3 mph37%29.83 "HgN/A
3:00 PM80 °FWarm.6 mph42%29.85 "HgN/A
2:00 PM78 °FWarm.2 mph49%29.87 "HgN/A
1:00 PM75 °FMild.6 mph61%29.89 "HgN/A
12:00 PM73 °FMild.6 mph64%29.91 "HgN/A
11:00 AM70 °FMild.6 mph69%29.93 "HgN/A
10:00 AM66 °FMild.6 mph74%29.95 "HgN/A
9:00 AM63 °FMild.5 mph80%29.96 "HgN/A
8:00 AM60 °FCool.2 mph91%29.97 "HgN/A
7:00 AM57 °FCool.1 mph96%29.98 "HgN/A
6:00 AM54 °FCool.3 mph96%29.98 "HgN/A
5:00 AM55 °FCool.No wind97%29.97 "HgN/A
4:00 AM56 °FCool.No wind97%29.97 "HgN/A
3:00 AM56 °FCool.2 mph95%29.97 "HgN/A
2:00 AM58 °FCool.2 mph94%29.96 "HgN/A
1:00 AM60 °FCool.1 mph91%29.96 "HgN/A
Weather by CustomWeather, © 2014

See weather overviewHow to use our weather pages